This demonstration page uses our WeatherBlox Daily Observations layout. Learn more.

Left ArrowRight Arrow

Hourly Observations for May 1, 2016

Temp ( °F °C ) Dew Point ( °F °C ) Humidity (%) Winds ( mph kmh ) Pressure ( in mb ) Visibility ( mi km ) Precip ( " mm )
12:35 am 00:35 Cloudy 50 10 48 9 94 94 NE 10 17 29.88 1012 8 13 0.00 0.00
12:54 am 00:54 Cloudy 50 10 48 8.9 93 93 NE 9 15 29.88 1012 7 11 0.00 0.00
1:54 am 01:54 Cloudy with Mist and Fog 49 9.4 48 8.9 97 97 NE 12 19 29.90 1013 5 8 0.00 0.03
2:54 am 02:54 Cloudy 49 9.4 46 7.8 90 90 NE 16 26 29.90 1013 10 16 0.00 0.00
3:43 am 03:43 Cloudy 48 8.9 46 7.8 93 93 NNE 13 20 29.94 1014 10 16 0.00 0.03
3:54 am 03:54 Cloudy with Light Rain 48 8.9 46 7.8 93 93 NE 13 20 29.92 1013 9 14 0.00 0.03
4:21 am 04:21 Cloudy with Light Rain 47 8.3 45 7.2 93 93 NNE 13 20 29.94 1014 3 5 0.02 0.51
4:54 am 04:54 Cloudy with Light Rain 46 7.8 44 6.7 93 93 NNE 17 28 29.93 1014 5 8 0.03 0.76
5:54 am 05:54 Cloudy 45 7.2 43 6.1 93 93 NE 14 22 29.95 1014 7 11 0.00 0.03
6:54 am 06:54 Cloudy with Light Rain 45 7.2 43 6.1 93 93 NNE 10 17 29.98 1015 9 14 0.00 0.03
7:54 am 07:54 Cloudy with Mist and Fog 45 7.2 43 6.1 93 93 NNE 15 24 30.01 1016 4 6 0.00 0.03
8:12 am 08:12 Cloudy with Light Rain 45 7 43 6 93 93 NNE 15 24 30.06 1018 2 3 0.00 0.00
8:23 am 08:23 Cloudy with Light Rain 45 7 43 6 93 93 N 15 24 30.06 1018 2 3 0.00 0.00
8:54 am 08:54 Cloudy with Light Rain 45 7.2 43 6.1 93 93 N 14 22 30.05 1018 2 3 0.02 0.51
9:54 am 09:54 Cloudy with Light Rain 45 7.2 43 6.1 93 93 N 14 22 30.08 1019 2 3 0.01 0.25
10:01 am 10:01 Cloudy with Mist and Fog 45 7.2 43 6.1 93 93 N 17 28 30.09 1019 5 8 0.00 0.03
10:24 am 10:24 Cloudy with Mist and Fog 46 8 43 6 87 87 N 14 22 30.12 1020 4 6 0.00 0.00
10:54 am 10:54 Cloudy with Light Rain 46 7.8 43 6.1 89 89 N 17 28 30.10 1019 6 10 0.00 0.03
11:54 am 11:54 Cloudy 47 8.3 43 6.1 86 86 NNE 15 24 30.12 1020 10 16 0.00 0.03
12:54 pm 12:54 Cloudy 48 8.9 42 5.6 80 80 NNE 18 30 30.12 1020 10 16 0.00 0.00
1:03 pm 13:03 Cloudy 48 9 43 6 82 82 NNE 17 28 30.15 1021 10 16 0.00 0.00
1:35 pm 13:35 Cloudy 46 8 43 6 87 87 N 22 35 30.15 1021 10 16 0.00 0.00
1:46 pm 13:46 Cloudy 47 8.3 42 5.6 83 83 NNE 18 30 30.15 1021 10 16 0.00 0.00
1:54 pm 13:54 Cloudy 50 10 43 6.1 77 77 NNE 24 39 30.13 1020 10 16 0.00 0.00
2:07 pm 14:07 Cloudy 49 9.4 42 5.6 77 77 NNE 23 37 30.15 1021 10 16 0.00 0.00
2:18 pm 14:18 Cloudy 48 9 43 6 82 82 NNE 20 31 30.15 1021 10 16 0.00 0.00
2:35 pm 14:35 Cloudy 50 10 42 5.6 74 74 NE 18 30 30.15 1021 10 16 0.00 0.00
2:54 pm 14:54 Cloudy 48 8.9 41 5 77 77 N 16 26 30.15 1021 10 16 0.00 0.00
3:07 pm 15:07 Cloudy 48 9 41 5 76 76 N 14 22 30.18 1022 10 16 0.00 0.00
3:14 pm 15:14 Cloudy 48 9 41 5 76 76 N 15 24 30.18 1022 10 16 0.00 0.00
3:54 pm 15:54 Cloudy 48 8.9 41 5 77 77 N 16 26 30.16 1021 10 16 0.00 0.00
4:54 pm 16:54 Cloudy 48 8.9 41 5 77 77 N 14 22 30.16 1021 10 16 0.00 0.00
5:32 pm 17:32 Cloudy 50 10 42 5.6 74 74 N 16 26 30.18 1022 10 16 0.00 0.00
5:54 pm 17:54 Cloudy 49 9.4 41 5 74 74 NNE 13 20 30.15 1021 10 16 0.00 0.00
6:54 pm 18:54 Cloudy 52 11 48 9 88 88 NE 10 17 29.80 1009 9 14 0.00 0.00
7:30 pm 19:30 Cloudy 50 10 43 6 76 76 NNE 6 9 30.21 1023 10 16 0.00 0.00
7:54 pm 19:54 Cloudy 50 10 42 5.6 74 74 NNE 7 11 30.18 1022 10 16 0.00 0.00
8:54 pm 20:54 Cloudy 50 10 43 6.1 77 77 WNW 3 6 30.19 1022 10 16 0.00 0.00
9:54 pm 21:54 Cloudy 49 9.4 44 6.7 83 83 NNW 7 11 30.18 1022 10 16 0.00 0.00
10:54 pm 22:54 Cloudy 50 10 43 6.1 77 77 NW 3 6 30.19 1022 10 16 0.00 0.00
11:54 pm 23:54 Cloudy 49 9.4 43 6.1 80 80 NW 6 9 30.19 1023 10 16 0.00 0.00

Powered by AerisWeather